This is the latest recevied weather packets stored in our database for station/object KN6ETB-1. If no packets are shown the sender has not sent any weather packets the latest 10 day(s).
| Time | Temp. | Humidity | Pressure | Rain* | Wind** | Luminosity | Snow |
|---|---|---|---|---|---|---|---|
| 1777954684 | 12.22° C | 93% | 1012.6 hPa | 3.05 mm | - | 0 W/m² | - |
| 1777954381 | 12.22° C | 93% | 1012.6 hPa | 4.83 mm | - | 0 W/m² | - |
| 1777954078 | 12.22° C | 93% | 1012.7 hPa | 6.1 mm | - | 0 W/m² | - |
| 1777953776 | 12.22° C | 93% | 1012.6 hPa | 7.11 mm | - | 0 W/m² | - |
| 1777953472 | 12.22° C | 92% | 1012.8 hPa | 6.1 mm | - | 0 W/m² | - |
| 1777953168 | 12.22° C | 92% | 1012.6 hPa | 4.83 mm | - | 0 W/m² | - |
| 1777952866 | 11.67° C | 92% | 1012.9 hPa | 1.78 mm | - | 0 W/m² | - |
| 1777952562 | 12.22° C | 91% | 1012.9 hPa | 1.27 mm | - | 0 W/m² | - |
| 1777952259 | 12.22° C | 91% | 1012.6 hPa | 3.05 mm | - | 0 W/m² | - |
| 1777951957 | 12.22° C | 91% | 1012.6 hPa | 1.78 mm | - | 0 W/m² | - |
| 1777951654 | 12.22° C | 90% | 1012.3 hPa | 1.27 mm | - | 0 W/m² | - |
| 1777951350 | 12.22° C | 90% | 1012.3 hPa | 1.27 mm | - | 0 W/m² | - |
| 1777951048 | 12.22° C | 89% | 1012.2 hPa | 1.78 mm | - | 0 W/m² | - |
| 1777950744 | 12.22° C | 89% | 1011.9 hPa | 1.78 mm | - | 0 W/m² | - |
| 1777950441 | 12.22° C | 89% | 1011.5 hPa | 0 mm | - | 0 W/m² | - |
| 1777950137 | 12.78° C | 89% | 1011.6 hPa | 0 mm | - | 0 W/m² | - |
| 1777949833 | 12.78° C | 88% | 1011.3 hPa | 1.27 mm | - | 0 W/m² | - |
| 1777949532 | 12.78° C | 88% | 1011 hPa | 1.27 mm | - | 0 W/m² | - |
| 1777949229 | 12.78° C | 88% | 1011 hPa | 0 mm | - | 0 W/m² | - |
| 1777948926 | 12.78° C | 88% | 1011.2 hPa | 1.78 mm | - | 0 W/m² | - |
| 1777948623 | 12.78° C | 87% | 1011 hPa | 1.78 mm | - | 1 W/m² | - |
| 1777948320 | 12.78° C | 87% | 1011.1 hPa | 0 mm | - | 3 W/m² | - |
| 1777948018 | 13.33° C | 87% | 1011.2 hPa | 1.27 mm | - | 4 W/m² | - |
| 1777947715 | 13.33° C | 87% | 1011.3 hPa | 1.27 mm | - | 5 W/m² | - |
| 1777947411 | 13.33° C | 87% | 1011.4 hPa | 0 mm | - | 5 W/m² | - |
* Rain latest hour (hover to see other rain measurements)
** Current wind speed in m/s (hover to see current wind gust speed)